星链-36119(STARLINK-36119)

导读

STARLINK-36119是美国SpaceX星链星座的一颗卫星,于2026年1月30日发射升空,属于Starlink Gen2系列,旨在为全球提供高速互联网覆盖服务。星链星座通过大规模低轨卫星组网,可服务偏远地区、支持海事航空及应急通信等场景。

基本信息
目录编号:
67619
目录名称:
STARLINK-36119
国际标识:
2026-020C
轨道中心:
EARTH
卫星名称:
星链-36119
卫星全名:
星链-36119(STARLINK-36119)
卫星状态:
在轨 (已飞行134 天)
发射日期:
2026-01-30 UTC
国别 :
美国 (US)
星等 :
--
轨道信息
数据来源 国际轨道数据
星历时间: 2026-06-11T02:01:44+0800
2天前
查看轨道信息
半长轴: 6861.126km
偏心率: 0.0001269
轨道倾角: 43.001°
近地点辐角 109.129°
升交点赤经 334.442°
平近点角 250.970°
近地点: 482.118km
远地点: 483.86km
周期: 94.266分钟
每日圈数: 15.276002
详细信息
固有亮度:
5
最大亮度:
2.5
卫星平台:
Starlink V1.0
覆盖范围:
全球
运营商:
太空探索技术公司
运营商所在国:
美国
制造商(研发单位):
太空探索技术公司
制造商所在国:
美国
使用方式:
暂无
卫星简介
Starlink 计划是 SpaceX 推出的全球卫星互联网项目,通过发射低轨道卫星,为全球尤其是偏远地区提供高速、低延迟的互联网服务。自 2019 年起,Starlink 已部署数千颗卫星,旨在缩小全球数字鸿沟,推动互联网普及。该项目还为军事、航空等行业提供通信支持,带来广泛经济效益。
2D轨道图
3D轨道图
轨道高度分析图
轨道倾角分析图
轨道综合分析图
查看轨道综合分析图